This demonstration page uses our WeatherBlox Daily Observations layout. Learn more.

Left ArrowRight Arrow

39.29038, -76.61219

Hourly Observations for November 2, 2020

Temp ( °F °C ) Dew Point ( °F °C ) Humidity (%) Winds ( mph kmh ) Pressure ( in mb ) Visibility ( mi km ) Precip ( " mm )
12:54 am 00:54 Mostly Clear 40 4.4 19 -7.2 43 43 W 21 33 29.95 1014 10 16 0.00 0.00
1:54 am 01:54 Mostly Clear 39 3.9 20 -6.7 46 46 W 16 26 29.95 1014 10 16 0.00 0.00
2:54 am 02:54 Mostly Clear 38 3.3 21 -6.1 51 51 W 15 24 29.94 1014 10 16 0.00 0.00
3:54 am 03:54 Mostly Clear 38 3.3 21 -6.1 51 51 W 15 24 29.95 1014 10 16 0.00 0.00
4:54 am 04:54 Mostly Cloudy 39 3.9 22 -5.6 50 50 W 18 30 29.96 1014 10 16 0.00 0.00
5:54 am 05:54 Partly Cloudy 39 3.9 23 -5 53 53 WNW 22 35 29.97 1015 10 16 0.00 0.00
6:54 am 06:54 Partly Cloudy 39 3.9 24 -4.4 55 55 W 16 26 30.00 1016 10 16 0.00 0.00
7:54 am 07:54 Partly Cloudy 42 5.6 25 -3.9 51 51 W 17 28 30.03 1017 10 16 0.00 0.00
8:54 am 08:54 Partly Cloudy 44 6.7 25 -3.9 47 47 W 21 33 30.04 1017 10 16 0.00 0.00
9:54 am 09:54 Partly Cloudy 45 7.2 25 -3.9 46 46 W 24 39 30.06 1018 10 16 0.00 0.00
10:54 am 10:54 Partly Cloudy 46 7.8 23 -5 40 40 WNW 23 37 30.07 1018 10 16 0.00 0.00
11:54 am 11:54 Partly Cloudy 47 8.3 21 -6.1 36 36 WNW 22 35 30.07 1018 10 16 0.00 0.00
12:54 pm 12:54 Partly Cloudy 49 9.4 22 -5.6 35 35 WNW 17 28 30.06 1018 10 16 0.00 0.00
1:54 pm 13:54 Mostly Sunny 49 9.4 20 -6.7 32 32 W 18 30 30.04 1017 10 16 0.00 0.00
2:54 pm 14:54 Mostly Sunny 49 9.4 21 -6.1 33 33 W 21 33 30.05 1018 10 16 0.00 0.00
3:54 pm 15:54 Sunny 48 8.9 20 -6.7 33 33 WNW 13 20 30.05 1018 10 16 0.00 0.00
4:54 pm 16:54 Sunny 46 7.8 20 -6.7 35 35 W 9 15 30.06 1018 10 16 0.00 0.00
5:54 pm 17:54 Clear 45 7.2 20 -6.7 37 37 SW 6 9 30.07 1018 10 16 0.00 0.00
6:54 pm 18:54 Clear 43 6.1 21 -6.1 42 42 SW 6 9 30.07 1018 10 16 0.00 0.00
7:54 pm 19:54 Clear 41 5 22 -5.6 47 47 WSW 7 11 30.06 1018 10 16 0.00 0.00
8:54 pm 20:54 Clear 43 6.1 19 -7.2 38 38 WSW 7 11 30.05 1018 10 16 0.00 0.00
9:54 pm 21:54 Clear 43 6.1 18 -7.8 37 37 SW 7 11 30.03 1017 10 16 0.00 0.00
10:54 pm 22:54 Clear 43 6.1 18 -7.8 37 37 SW 10 17 30.01 1016 10 16 0.00 0.00
11:54 pm 23:54 Partly Cloudy 43 6.1 18 -7.8 37 37 SW 9 15 29.99 1016 10 16 0.00 0.00

Powered by AerisWeather